Вернуться в каталог

THORAD DELTA 1 DEB

АктивенLEO
NORAD 8300·DEBRIS·🇺🇸 United States

Запущен Nov 15, 1974 с Vandenberg Space Force Base

Loading…

Ближайшие Пролёты (ближайшие 24 часа)

TLE

СвежийSource: Space-Track

Эпоха: Sep 14, 2026, 07:58 UTC

1 08300U 74089BH  26257.33255524 -.00000235  00000-0 -20783-2 0  9994
2 08300 100.8956 201.1596 0340872 193.4575 322.4294 12.00641227552838

Отслеживайте THORAD DELTA 1 DEB в реальном времени с AllMySat

Download on the App Store